Location: La Fredeussais
(48.1780°N, 1.3980°W)
Time: 18:47:51
(UTC+00:00)

X-37B - Pass Details

Date: 09 May 2021
Orbit: 386 x 389 km, 45.0° (Epoch: 10 June)

Event Time Altitude Azimuth Distance (km) Brightness Sun altitude
Rises 21:52:37 0° 272° (W) 2,273 5.0 -18.2°
Reaches altitude 10° 21:54:57 10° 257° (WSW) 1,416 3.6 -18.4°
Enters shadow 21:56:28 19° 232° (SW) 1,004 2.6 -18.5°
